FW1757 Weather Reports


Display with metric or nautical units.
time (UTC)temp
F
wind
direction
speed
MPH
gust
MPH
rain 1hr
in
rain 24hr
in
rain mn
in
humidity
%
barometer
mb
20260901083049 65 242 0.0 0.0 0.00 0.00 0.00 56 1006.5
20260901082548 65 242 0.0 0.0 0.00 0.00 0.00 55 1006.6
20260901082048 65 242 0.0 0.0 0.00 0.00 0.00 54 1006.6
20260901081547 66 242 0.0 0.0 0.00 0.00 0.00 53 1006.6
20260901081048 66 244 0.0 0.0 0.00 0.00 0.00 52 1006.6
20260901080546 66 244 0.0 0.0 0.00 0.00 0.00 52 1006.6
20260901080105 66 257 0.0 0.0 0.00 0.00 0.00 51 1006.6
20260901075546 66 261 0.0 0.0 0.00 0.00 0.00 51 1006.6
20260901075045 66 250 0.0 0.0 0.00 0.00 0.00 51 1006.6
20260901074547 66 254 0.0 0.0 0.00 0.00 0.00 50 1006.5
20260901074047 66 254 0.0 0.0 0.00 0.00 0.00 50 1006.4
20260901073543 66 254 0.0 0.0 0.00 0.00 0.00 49 1006.4
20260901073049 66 254 0.0 0.0 0.00 0.00 0.00 49 1006.4
20260901072542 66 254 0.0 0.0 0.00 0.00 0.00 48 1006.4
20260901072048 66 254 0.0 0.0 0.00 0.00 0.00 48 1006.3
20260901071541 66 254 0.0 0.0 0.00 0.00 0.00 48 1006.3
20260901071040 66 254 0.0 0.0 0.00 0.00 0.00 47 1006.3
20260901070543 66 257 0.0 0.0 0.00 0.00 0.00 47 1006.3
20260901070039 66 215 0.0 0.0 0.00 0.00 0.00 47 1006.2
20260901065539 66 215 0.0 0.0 0.00 0.00 0.00 46 1006.1
20260901065038 66 215 0.0 0.0 0.00 0.00 0.00 46 1006.2
20260901064538 66 215 0.0 0.0 0.00 0.00 0.00 46 1006.2
20260901064037 66 215 0.0 0.0 0.00 0.00 0.00 46 1006.1
20260901063537 66 215 0.0 0.0 0.00 0.00 0.00 46 1006.1
20260901063037 66 215 0.0 0.0 0.00 0.00 0.00 45 1006.2
20260901062537 66 215 0.0 0.0 0.00 0.00 0.00 45 1006.2
20260901062037 66 213 0.0 0.0 0.00 0.00 0.00 45 1006.2
20260901061537 66 211 0.0 0.0 0.00 0.00 0.00 45 1006.3
20260901061037 66 159 0.0 0.0 0.00 0.00 0.00 44 1006.2
20260901060537 66 159 0.0 0.0 0.00 0.00 0.00 44 1006.2
20260901060041 67 159 0.0 0.0 0.00 0.00 0.00 43 1006.2
20260901055536 67 159 0.0 0.0 0.00 0.00 0.00 43 1006.2
20260901055036 67 159 0.0 0.0 0.00 0.00 0.00 42 1006.2
20260901054537 68 159 0.0 0.0 0.00 0.00 0.00 41 1006.4
20260901054036 68 159 0.0 0.0 0.00 0.00 0.00 41 1006.5
20260901053535 68 159 0.0 0.0 0.00 0.00 0.00 41 1006.5
20260901053045 68 159 0.0 0.0 0.00 0.00 0.00 41 1006.5
20260901052535 68 159 0.0 0.0 0.00 0.00 0.00 40 1006.5
20260901052035 69 159 0.0 0.0 0.00 0.00 0.00 40 1006.5
20260901051535 69 159 0.0 0.0 0.00 0.00 0.00 39 1006.6
20260901051035 69 159 0.0 0.0 0.00 0.00 0.00 39 1006.5
20260901050537 69 159 0.0 0.0 0.00 0.00 0.00 38 1006.5
20260901050036 69 159 0.0 0.0 0.00 0.00 0.00 38 1006.3
20260901045536 69 159 0.0 0.0 0.00 0.00 0.00 38 1006.4
20260901045034 70 159 0.0 0.0 0.00 0.00 0.00 38 1006.3
20260901044535 70 159 0.0 0.0 0.00 0.00 0.00 37 1006.3
20260901044035 70 159 0.0 0.0 0.00 0.00 0.00 37 1006.2
20260901043535 70 159 0.0 0.0 0.00 0.00 0.00 37 1006.2
20260901043033 70 159 0.0 0.0 0.00 0.00 0.00 37 1006.2
20260901042533 70 159 0.0 0.0 0.00 0.00 0.00 36 1006.2
20260901042037 70 159 0.0 0.0 0.00 0.00 0.00 36 1006.2
20260901041540 70 159 0.0 0.0 0.00 0.00 0.00 36 1006.2
20260901041036 70 159 0.0 0.0 0.00 0.00 0.00 36 1006.1
20260901040537 70 159 0.0 0.0 0.00 0.00 0.00 35 1006.0
20260901040036 70 159 0.0 0.0 0.00 0.00 0.00 35 1006.0
20260901035536 70 155 0.0 0.0 0.00 0.00 0.00 34 1005.9
20260901035032 70 155 0.0 0.0 0.00 0.00 0.00 35 1005.8
20260901034533 70 155 0.0 0.0 0.00 0.00 0.00 35 1005.9
20260901034032 70 155 0.0 0.0 0.00 0.00 0.00 34 1005.8
20260901033535 70 155 0.0 0.0 0.00 0.00 0.00 34 1005.8
20260901033032 70 155 0.0 0.0 0.00 0.00 0.00 34 1005.7
20260901032532 70 155 0.0 0.0 0.00 0.00 0.00 34 1005.6
20260901032032 70 155 0.0 0.0 0.00 0.00 0.00 35 1005.5
20260901031531 70 155 0.0 0.0 0.00 0.00 0.00 34 1005.5
20260901031032 71 155 0.0 0.0 0.00 0.00 0.00 35 1005.6
20260901030533 71 155 0.0 0.0 0.00 0.00 0.00 34 1005.6
20260901030031 71 155 0.0 0.0 0.00 0.00 0.00 34 1005.5
20260901025531 72 155 0.0 0.0 0.00 0.00 0.00 33 1005.5
20260901025031 73 155 0.0 0.0 0.00 0.00 0.00 33 1005.5
20260901024530 74 155 0.0 0.0 0.00 0.00 0.00 32 1005.5
20260901024033 74 155 0.0 0.0 0.00 0.00 0.00 31 1005.4
20260901023529 75 155 0.0 0.0 0.00 0.00 0.00 31 1005.3
20260901023029 76 155 0.0 0.0 0.00 0.00 0.00 30 1005.4
20260901022530 77 155 0.0 0.0 0.00 0.00 0.00 29 1005.4
20260901022030 78 155 0.0 0.0 0.00 0.00 0.00 28 1005.4
20260901021534 79 155 0.0 0.0 0.00 0.00 0.00 27 1005.4
20260901021029 81 155 0.0 0.0 0.00 0.00 0.00 27 1005.4
20260901020528 82 155 0.0 0.0 0.00 0.00 0.00 26 1005.3
20260901020029 83 155 0.0 0.0 0.00 0.00 0.00 25 1005.4
20260901015527 84 155 0.0 0.0 0.00 0.00 0.00 24 1005.5
20260901015026 85 155 0.0 0.0 0.00 0.00 0.00 24 1005.6
20260901014526 85 155 0.0 0.0 0.00 0.00 0.00 23 1005.5
20260901014026 86 155 0.0 0.0 0.00 0.00 0.00 21 1005.6
20260901013526 86 155 0.0 0.0 0.00 0.00 0.00 21 1005.5
20260901013026 87 155 0.0 0.0 0.00 0.00 0.00 21 1005.6
20260901012525 87 155 0.0 0.0 0.00 0.00 0.00 21 1005.6
20260901012025 87 155 0.0 0.0 0.00 0.00 0.00 21 1005.6
20260901011535 87 151 0.0 0.0 0.00 0.00 0.00 21 1005.7
20260901011025 88 151 0.0 0.0 0.00 0.00 0.00 20 1005.6
20260901010525 88 150 0.0 0.0 0.00 0.00 0.00 20 1005.6
20260901010035 88 150 0.0 0.0 0.00 0.00 0.00 20 1005.6
20260901005524 88 199 0.0 0.0 0.00 0.00 0.00 20 1005.7
20260901005024 88 152 0.0 0.0 0.00 0.00 0.00 20 1005.7
20260901004525 88 159 0.0 0.0 0.00 0.00 0.00 20 1005.7
20260901004023 89 150 0.0 0.0 0.00 0.00 0.00 20 1005.7
20260901003524 89 147 0.0 0.0 0.00 0.00 0.00 20 1005.8
20260901003023 89 128 0.0 0.0 0.00 0.00 0.00 19 1005.8
20260901002523 89 167 0.0 0.0 0.00 0.00 0.00 20 1005.9
20260901002023 89 150 0.0 0.0 0.00 0.00 0.00 19 1005.8
20260901001527 89 147 0.0 0.0 0.00 0.00 0.00 20 1005.9
20260901001021 89 167 0.0 0.0 0.00 0.00 0.00 20 1006.0
20260901000520 89 155 0.0 0.0 0.00 0.00 0.00 19 1006.1
20260901000021 89 117 0.0 0.0 0.00 0.00 0.00 19 1006.2
20260831235521 89 79 0.0 0.0 0.00 0.00 0.00 20 1006.2
20260831235019 89 188 0.0 0.0 0.00 0.00 0.00 20 1006.2
20260831234521 89 141 0.0 0.0 0.00 0.00 0.00 20 1006.5
20260831234019 89 128 0.0 0.0 0.00 0.00 0.00 19 1006.4
20260831233518 89 159 0.0 0.0 0.00 0.00 0.00 19 1006.4
20260831233034 89 126 0.0 0.0 0.00 0.00 0.00 20 1006.4
20260831232517 89 134 0.0 0.0 0.00 0.00 0.00 20 1006.5
20260831232021 90 143 0.0 0.0 0.00 0.00 0.00 19 1006.5
20260831231520 89 156 0.0 0.0 0.00 0.00 0.00 20 1006.5
20260831231015 89 169 0.0 0.0 0.00 0.00 0.00 19 1006.7
20260831230515 89 68 0.0 0.0 0.00 0.00 0.00 19 1006.7
20260831230014 89 143 0.0 0.0 0.00 0.00 0.00 20 1006.8
20260831225514 89 138 0.0 0.0 0.00 0.00 0.00 20 1006.9
20260831225011 89 161 0.0 0.0 0.00 0.00 0.00 20 1007.0
20260831224510 89 155 0.0 0.0 0.00 0.00 0.00 20 1007.2
20260831224010 88 157 0.0 0.0 0.00 0.00 0.00 20 1007.2
20260831223508 88 150 0.0 0.0 0.00 0.00 0.00 21 1007.3
20260831223008 88 133 0.0 0.0 0.00 0.00 0.00 21 1007.5
20260831222506 88 155 0.0 0.0 0.00 0.00 0.00 21 1007.6
20260831222006 87 158 0.0 0.0 0.00 0.00 0.00 21 1007.7
20260831221504 87 162 0.0 0.0 0.00 0.00 0.00 22 1007.7
20260831221004 87 142 0.0 0.0 0.00 0.00 0.00 22 1007.8
20260831220503 87 119 0.0 0.0 0.00 0.00 0.00 22 1007.8
20260831220004 87 151 0.0 0.0 0.00 0.00 0.00 23 1007.9
20260831215501 86 137 0.0 0.0 0.00 0.00 0.00 23 1008.0
20260831215100 86 172 0.0 0.0 0.00 0.00 0.00 23 1008.1
20260831214609 86 155 0.0 0.0 0.00 0.00 0.00 23 1008.2
20260831214101 85 144 0.0 0.0 0.00 0.00 0.00 24 1008.2
20260831213556 85 165 0.0 0.0 0.00 0.00 0.00 24 1008.3
20260831213055 84 130 0.0 0.0 0.00 0.00 0.00 24 1008.3
20260831212554 84 69 0.0 0.0 0.00 0.00 0.00 24 1008.4
20260831212054 84 121 0.0 0.0 0.00 0.00 0.00 25 1008.5
20260831211552 83 123 0.0 0.0 0.00 0.00 0.00 25 1008.5
20260831211050 83 86 0.0 0.0 0.00 0.00 0.00 25 1008.6
20260831210553 83 127 0.0 0.0 0.00 0.00 0.00 25 1008.5
20260831210049 83 181 0.0 0.0 0.00 0.00 0.00 25 1008.6
20260831205552 83 116 0.0 0.0 0.00 0.00 0.00 26 1008.8
20260831205047 83 126 0.0 0.0 0.00 0.00 0.00 26 1008.8
20260831204546 82 149 0.0 0.0 0.00 0.00 0.00 28 1008.9
20260831204045 81 92 0.0 0.0 0.00 0.00 0.00 27 1008.9
20260831203545 81 107 0.0 0.0 0.00 0.00 0.00 27 1009.0
20260831203042 81 112 0.0 0.0 0.00 0.00 0.00 28 1009.1
20260831202542 81 77 0.0 0.0 0.00 0.00 0.00 29 1009.4
20260831202041 81 102 0.0 0.0 0.00 0.00 0.00 30 1009.6
20260831201539 81 127 0.0 0.0 0.00 0.00 0.00 30 1009.7
20260831201039 81 148 0.0 0.0 0.00 0.00 0.00 30 1009.9
20260831200538 80 148 0.0 0.0 0.00 0.00 0.00 31 1010.1
20260831200039 80 94 0.0 0.0 0.00 0.00 0.00 31 1010.0
20260831195534 79 137 0.0 0.0 0.00 0.00 0.00 32 1010.1
20260831195033 79 78 0.0 0.0 0.00 0.00 0.00 32 1010.2
20260831194533 79 100 0.0 0.0 0.00 0.00 0.00 32 1010.3
20260831194030 78 144 0.0 0.0 0.00 0.00 0.00 33 1010.3
20260831193531 78 176 0.0 0.0 0.00 0.00 0.00 34 1010.4
20260831193034 77 104 0.0 0.0 0.00 0.00 0.00 34 1010.5
20260831192527 77 156 0.0 0.0 0.00 0.00 0.00 34 1010.6
20260831192025 76 128 0.0 0.0 0.00 0.00 0.00 35 1010.7
20260831191524 76 132 0.0 0.0 0.00 0.00 0.00 35 1010.7
20260831191025 76 159 0.0 0.0 0.00 0.00 0.00 36 1010.8
20260831190522 75 89 0.0 0.0 0.00 0.00 0.00 35 1011.0
20260831190024 75 71 0.0 0.0 0.00 0.00 0.00 35 1011.0
20260831185519 75 163 0.0 0.0 0.00 0.00 0.00 37 1011.0
20260831185018 74 153 0.0 0.0 0.00 0.00 0.00 37 1011.2
20260831184517 74 57 0.0 0.0 0.00 0.00 0.00 37 1011.3
20260831184016 74 127 0.0 0.0 0.00 0.00 0.00 38 1011.3
20260831183514 73 146 0.0 0.0 0.00 0.00 0.00 38 1011.5
20260831183013 73 71 0.0 0.0 0.00 0.00 0.00 39 1011.5
20260831182514 73 200 0.0 0.0 0.00 0.00 0.00 39 1011.7
20260831182012 72 135 0.0 0.0 0.00 0.00 0.00 40 1011.8
20260831181511 72 136 0.0 0.0 0.00 0.00 0.00 40 1011.9
20260831181010 72 82 0.0 0.0 0.00 0.00 0.00 40 1012.0
20260831180508 72 126 0.0 0.0 0.00 0.00 0.00 42 1012.0
20260831180008 71 65 0.0 0.0 0.00 0.00 0.00 43 1012.1
20260831175506 70 57 0.0 0.0 0.00 0.00 0.00 44 1012.1
20260831175004 70 113 0.0 0.0 0.00 0.00 0.00 44 1012.2
20260831174506 69 104 0.0 0.0 0.00 0.00 0.00 47 1012.1
20260831174001 68 153 0.0 0.0 0.00 0.00 0.00 48 1012.2
20260831173559 67 95 0.0 0.0 0.00 0.00 0.00 50 1012.2
20260831173059 66 34 0.0 0.0 0.00 0.00 0.00 58 1012.3
20260831172557 66 38 0.0 0.0 0.00 0.00 0.00 61 1012.3
20260831172056 65 40 0.0 0.0 0.00 0.00 0.00 62 1012.3
20260831171555 64 40 0.0 0.0 0.00 0.00 0.00 63 1012.5
20260831171053 64 12 0.0 0.0 0.00 0.00 0.00 64 1012.5
20260831170552 63 55 0.0 0.0 0.00 0.00 0.00 65 1012.4
20260831170051 62 51 0.0 0.0 0.00 0.00 0.00 66 1012.5
20260831165549 62 49 0.0 0.0 0.00 0.00 0.00 67 1012.4
20260831165047 61 51 0.0 0.0 0.00 0.00 0.00 67 1012.6
20260831164549 60 51 0.0 0.0 0.00 0.00 0.00 68 1012.7
20260831164045 60 46 0.0 0.0 0.00 0.00 0.00 69 1012.7
20260831163544 59 28 0.0 0.0 0.00 0.00 0.00 69 1012.7
20260831163045 59 40 0.0 0.0 0.00 0.00 0.00 71 1012.8
20260831162544 58 39 0.0 0.0 0.00 0.00 0.00 71 1012.8
20260831162045 58 23 0.0 0.0 0.00 0.00 0.00 71 1012.8
20260831161550 57 38 0.0 0.0 0.00 0.00 0.00 71 1013.0
20260831161043 57 22 0.0 0.0 0.00 0.00 0.00 72 1013.0
20260831160542 56 26 0.0 0.0 0.00 0.00 0.00 72 1013.0
20260831160042 56 306 0.0 0.0 0.00 0.00 0.00 72 1013.0
20260831155542 56 306 0.0 0.0 0.00 0.00 0.00 72 1013.0
20260831155042 55 306 0.0 0.0 0.00 0.00 0.00 72 1013.1
20260831154542 55 306 0.0 0.0 0.00 0.00 0.00 68 1013.1
20260831154043 54 306 0.0 0.0 0.00 0.00 0.00 67 1013.1
20260831153544 54 248 0.0 0.0 0.00 0.00 0.00 61 1013.1
20260831153041 54 248 0.0 0.0 0.00 0.00 0.00 53 1013.1
20260831152541 53 248 0.0 0.0 0.00 0.00 0.00 43 1013.1
20260831152041 53 248 0.0 0.0 0.00 0.00 0.00 40 1013.2
20260831151540 53 248 0.0 0.0 0.00 0.00 0.00 39 1013.2
20260831151040 52 248 0.0 0.0 0.00 0.00 0.00 38 1013.0
20260831150542 52 248 0.0 0.0 0.00 0.00 0.00 39 1013.1
20260831150040 52 248 0.0 0.0 0.00 0.00 0.00 39 1013.0
20260831145539 51 248 0.0 0.0 0.00 0.00 0.00 36 1012.9
20260831145038 51 248 0.0 0.0 0.00 0.00 0.00 38 1013.0
20260831144537 51 248 0.0 0.0 0.00 0.00 0.00 42 1012.9
20260831144036 51 248 0.0 0.0 0.00 0.00 0.00 49 1012.8
20260831143536 51 248 0.0 0.0 0.00 0.00 0.00 53 1012.8
20260831143035 50 248 0.0 0.0 0.00 0.00 0.00 56 1012.8
20260831142535 50 248 0.0 0.0 0.00 0.00 0.00 56 1012.8
20260831142034 50 248 0.0 0.0 0.00 0.00 0.00 56 1012.8
20260831141536 50 248 0.0 0.0 0.00 0.00 0.00 57 1012.8
20260831141038 50 248 0.0 0.0 0.00 0.00 0.00 57 1012.7
20260831140535 50 248 0.0 0.0 0.00 0.00 0.00 58 1012.7
20260831140044 50 248 0.0 0.0 0.00 0.00 0.00 58 1012.8
20260831135534 50 248 0.0 0.0 0.00 0.00 0.00 58 1012.8
20260831135032 50 248 0.0 0.0 0.00 0.00 0.00 58 1012.8
20260831134538 51 248 0.0 0.0 0.00 0.00 0.00 58 1012.8
20260831134032 51 248 0.0 0.0 0.00 0.00 0.00 59 1012.8
20260831133531 51 248 0.0 0.0 0.00 0.00 0.00 60 1012.7
20260831133033 51 248 0.0 0.0 0.00 0.00 0.00 60 1012.8
20260831132531 51 248 0.0 0.0 0.00 0.00 0.00 60 1012.7
20260831132032 51 248 0.0 0.0 0.00 0.00 0.00 61 1012.7
20260831131530 51 248 0.0 0.0 0.00 0.00 0.00 63 1012.7
20260831131032 51 248 0.0 0.0 0.00 0.00 0.00 63 1012.6
20260831130529 51 248 0.0 0.0 0.00 0.00 0.00 62 1012.6
20260831130028 51 248 0.0 0.0 0.00 0.00 0.00 60 1012.7
20260831125533 51 248 0.0 0.0 0.00 0.00 0.00 63 1012.7
20260831125028 51 248 0.0 0.0 0.00 0.00 0.00 63 1012.6
20260831124527 51 248 0.0 0.0 0.00 0.00 0.00 63 1012.6
20260831124027 51 248 0.0 0.0 0.00 0.00 0.00 66 1012.7
20260831123529 51 248 0.0 0.0 0.00 0.00 0.00 66 1012.7
20260831123030 51 248 0.0 0.0 0.00 0.00 0.00 67 1012.6
20260831122525 51 248 0.0 0.0 0.00 0.00 0.00 68 1012.6
20260831122024 51 248 0.0 0.0 0.00 0.00 0.00 67 1012.7
20260831121532 51 248 0.0 0.0 0.00 0.00 0.00 68 1012.6
20260831121024 52 248 0.0 0.0 0.00 0.00 0.00 68 1012.5
20260831120524 52 248 0.0 0.0 0.00 0.00 0.00 68 1012.6
20260831120023 52 248 0.0 0.0 0.00 0.00 0.00 69 1012.6
20260831115522 52 248 0.0 0.0 0.00 0.00 0.00 69 1012.6
20260831115022 52 248 0.0 0.0 0.00 0.00 0.00 70 1012.7
20260831114521 52 248 0.0 0.0 0.00 0.00 0.00 70 1012.7
20260831114021 52 248 0.0 0.0 0.00 0.00 0.00 70 1012.6
20260831113525 52 248 0.0 0.0 0.00 0.00 0.00 70 1012.6
20260831113020 52 248 0.0 0.0 0.00 0.00 0.00 70 1012.7
20260831112523 52 248 0.0 0.0 0.00 0.00 0.00 70 1012.6
20260831112020 53 248 0.0 0.0 0.00 0.00 0.00 70 1012.6
20260831111518 53 248 0.0 0.0 0.00 0.00 0.00 70 1012.6
20260831111018 53 248 0.0 0.0 0.00 0.00 0.00 70 1012.6
20260831110517 53 248 0.0 0.0 0.00 0.00 0.00 70 1012.7
20260831110017 53 248 0.0 0.0 0.00 0.00 0.00 70 1012.6
20260831105518 53 248 0.0 0.0 0.00 0.00 0.00 70 1012.7
20260831105015 53 248 0.0 0.0 0.00 0.00 0.00 70 1012.7
20260831104522 53 248 0.0 0.0 0.00 0.00 0.00 70 1012.7
20260831104014 54 248 0.0 0.0 0.00 0.00 0.00 71 1012.7
20260831103513 54 248 0.0 0.0 0.00 0.00 0.00 71 1012.6
20260831103013 54 248 0.0 0.0 0.00 0.00 0.00 71 1012.6
20260831102516 54 248 0.0 0.0 0.00 0.00 0.00 71 1012.7
20260831102014 54 248 0.0 0.0 0.00 0.00 0.00 71 1012.7
20260831101512 54 248 0.0 0.0 0.00 0.00 0.00 71 1012.8
20260831101011 54 248 0.0 0.0 0.00 0.00 0.00 72 1012.8
20260831100510 54 248 0.0 0.0 0.00 0.00 0.00 72 1012.8
20260831100012 55 248 0.0 0.0 0.00 0.00 0.00 72 1012.7
20260831095509 55 248 0.0 0.0 0.00 0.00 0.00 72 1012.9
20260831095008 55 248 0.0 0.0 0.00 0.00 0.00 72 1013.0
20260831094511 55 248 0.0 0.0 0.00 0.00 0.00 72 1013.0
20260831094010 55 248 0.0 0.0 0.00 0.00 0.00 72 1013.1
20260831093506 55 248 0.0 0.0 0.00 0.00 0.00 72 1013.1
20260831093004 55 248 0.0 0.0 0.00 0.00 0.00 72 1013.1
20260831092506 56 248 0.0 0.0 0.00 0.00 0.00 72 1013.1
20260831092004 56 248 0.0 0.0 0.00 0.00 0.00 71 1013.1
20260831091505 56 248 0.0 0.0 0.00 0.00 0.00 71 1013.2
20260831091003 56 248 0.0 0.0 0.00 0.00 0.00 71 1013.2
20260831090502 56 248 0.0 0.0 0.00 0.00 0.00 71 1013.2
20260831090001 57 248 0.0 0.0 0.00 0.00 0.00 71 1013.3
20260831085601 57 248 0.0 0.0 0.00 0.00 0.00 71 1013.2
20260831085100 57 248 0.0 0.0 0.00 0.00 0.00 71 1013.1
20260831084609 57 248 0.0 0.0 0.00 0.00 0.00 71 1013.3
20260831084058 57 248 0.0 0.0 0.00 0.00 0.00 70 1013.3
20260831083557 57 248 0.0 0.0 0.00 0.00 0.00 70 1013.3